Regional Weather Roundup
Issued by NWS Upton, NY

Current Version | Previous Version | Text Only | Print | Product List | Glossary Off
Versions: 1 2 3 4 5 6 7 8 9 10 11 12 13 14 15 16 17 18 19 20 21 22 23 24 25 26 27 28 29

000
ASUS41 KOKX 292305
RWROKX

REGIONAL WEATHER ROUNDUP
NATIONAL WEATHER SERVICE NEW YORK NY
700 PM EDT MON AUG 29 2016

NOTE: "FAIR" INDICATES FEW OR NO CLOUDS BELOW 12,000 FEET WITH NO
SIGNIFICANT WEATHER AND/OR OBSTRUCTIONS TO VISIBILITY.

NYZ071-072-176-178-NJZ106-104-300000-
NEW YORK CITY METRO AREA

CITY           SKY/WX    TMP DP  RH WIND       PRES   REMARKS
Central Park   CLEAR     86  57  37 VRB6      30.11R
LaGuardia APRT PTCLDY    87  59  38 NW12      30.07R
Kennedy INTL   PTCLDY    87  58  37 N12       30.07R
Newark/Liberty PTCLDY    87  58  37 NW15      30.07R
Bronx Bot Gard   N/A     86  57  37 W8        30.10R
Wall St Helipt CLEAR     90  61  37 CALM      30.08R
Teterboro      CLEAR     85  55  35 NW12      30.06R
$$

NYZ177-179-078>081-300000-
LONG ISLAND NEW YORK

CITY           SKY/WX    TMP DP  RH WIND       PRES   REMARKS
Farmingdale    CLEAR     86  56  35 N13       30.07R
MacArthur/ISP  PTCLDY    85  57  38 N8        30.07R
Shirley        CLEAR     84  58  40 N6        30.07S
Riverhead      NOT AVBL
Westhampton    CLEAR     84  55  36 NW9       30.08S
Southampton      N/A     82  63  51 N5        30.02S
Bridgehampton    N/A     79  64  61 CALM      30.05S
East Hampton   FAIR      78  65  62 NW3       30.05S
Montauk          N/A     79  65  62 NW5       30.07R
$$

NYZ052-065-067-300000-
HUDSON VALLEY

CITY           SKY/WX    TMP DP  RH WIND       PRES   REMARKS
White Plains   CLEAR     82  55  39 N9        30.09R
Newburgh       PTCLDY    81  61  50 N9        30.12S
Montgomery     PTCLDY    82  60  47 NW6       30.12R
Poughkeepsie   CLEAR     80  54  40 N9        30.10R
Albany         PTCLDY    79  56  45 NE8       30.12R
$$

NJZ001-105-106-008-010-013-015-019>022-104-300000-
NEW JERSEY

CITY           SKY/WX    TMP DP  RH WIND       PRES   REMARKS
Newark/Liberty PTCLDY    87  58  37 NW15      30.07R
Teterboro      CLEAR     85  55  35 NW12      30.06R
Caldwell       CLEAR     84  61  45 NW6       30.10R
Morristown     PTCLDY    77  59  53 N7        30.10R
Somerville     CLEAR     85  60  42 N7        30.08R
Linden         FAIR      86  56  36 N12       30.09S
Sussex         CLEAR     80  59  48 N5        30.13R
Abdover          N/A     77  60  55 N5        30.13R
Trenton        CLEAR     86  60  41 N10       30.08R
Millville      CLEAR     85  75  72 W7        30.06S HX  93
Atlantic City  MOCLDY    88  71  57 SW8       30.04S HX  94
Wrightstown    CLEAR     85  63  46 N10       30.04R
Toms River     CLEAR     88  63  43 N9        30.07R
Belmar         CLEAR     86  61  42 N7        30.08R
$$

PAZ047>061-062-071-300000-
EASTERN PENNSYLVANIA

CITY           SKY/WX    TMP DP  RH WIND       PRES   REMARKS
Philadelphia   PTCLDY    90  56  31 N13       30.06R
Allentown      CLEAR     83  60  45 N8        30.11S
Scranton       CLEAR     80  58  46 N9        30.16S
$$

CTZ002-004>006-009-010-012-RIZ004-006-007-MAZ004-011-015-300000-
SOUTHERN NEW ENGLAND
 IN CT

CITY           SKY/WX    TMP DP  RH WIND       PRES   REMARKS
Bradley INTL   PTCLDY    80  54  40 N14       30.10R
Hartford       CLEAR     85  56  37 N14       30.07R
Danbury        CLEAR     79  56  45 N8        30.12R
Wtrbury/Oxford PTCLDY    79  55  44 N7        30.15R
Bridgeport     CLEAR     86  55  34 N12       30.07R
Meriden        PTCLDY    85  57  38 NW8       30.08R
New Haven      CLEAR     83  54  36 NW9G17    30.08R
Chester        FAIR      81  57  44 N6        30.09R
Groton         CLEAR     84  57  39 N8        30.06R
Wilimantic     CLEAR     82  57  42 NW5       30.09R

 IN RI

CITY           SKY/WX    TMP DP  RH WIND       PRES   REMARKS
Providence     PTCLDY    83  55  38 N10G21    30.06R
Block Island   CLEAR     78  63  59 N8        30.06R
Westerly       CLEAR     84  53  34 N8        30.06R
 IN MA

CITY           SKY/WX    TMP DP  RH WIND       PRES   REMARKS
Boston         PTCLDY    80  52  37 NW16G23   30.07
Worcester      CLEAR     75  51  43 N9        30.13R
Westfield      CLEAR     79  54  41 N9        30.10R
Provincetown   CLEAR     72  62  71 N8        30.06R
Nantucket      CLEAR     74  58  57 NE12      30.05R
$$

ANZ330-335-338-340-345-350-353-355-300000-
COASTAL MARINE OBSERVATIONS


STATION/POSITION TIME  SKY/WX   TEMP    WIND        PRES    VSBY  WAVE
                                AIR SEA DIR/SP/G                  HT/PER
                 (UTC)          (F)     (DEG/KT/KT) (MB)    (MI)  (FT/S)
NY HARB ENTRANCE 2150            82 79  290/  6/  8 1017.4          3/14
20S FIRE ISLAND  2150            78 76  240/  6/  8 1017.3          3/13
GREAT SOUTH BAY  2230            85 81  360/ 12/ 14   N/A
23 SSW MONTAUK P 2150            77 76  250/ 10/ 12 1017.8          3/13
15 E BARNEGAT LI 2230               78                N/A           3/13
HUDSON CANYON    2150            80 79              1017.9          3/13
KINGS POINT      2200            84 78                N/A
EXECUTION ROCKS  2200            86     330/  6/  8   N/A
CENTRAL LI SOUND 2200            83 77  320/  8/ 10   N/A           1/ 4
EASTERN LI SOUND 2200            82 71  340/ 10/ 16   N/A
ROBBINS REEF     2206            87     330/ 10/ 14 1017.3
$$


>>>>>>>>>>>>>>>>>>>>>>>>>>>> KEY <<<<<<<<<<<<<<<<<<<<<<<<<<<
>                                                          <
>     SKY/WX - Sky Condition/Present Weather               <
>     TMP    - Temperature in Fahrenheit                   <
>     DP     - Dew Point in Fahrenheit                     <
>     RH     - Relative Humidity in Percent                <
>     WIND   - Direction (from) and Speed in MPH           <
>     PRES   - Mean Sea Level Pressure (inches of Hg)      <
>     WCI    - Wind Chill Index                            <
>     VSB    - VISIBILITY IN MILES                         <
>     HX     - HEAT INDEX                                  <
>     TC     - TEMPERATURE IN CELSIUS                      <
>     VRB    - VARIABLE WIND DIRECTION                     <
>                                                          <
>>>>>>>>>>>>>>>>>>>>>>>>>>>> KEY <<<<<<<<<<<<<<<<<<<<<<<<<<<




USA.gov is the U.S. government's official web portal to all federal, state and local government web resources and services.